TimeCST,TemperatureF,Dew PointF,Humidity,Sea Level PressureIn,VisibilityMPH,Wind Direction,Wind SpeedMPH,Gust SpeedMPH,PrecipitationIn,Events,Conditions,WindDirDegrees,DateUTC
12:53 AM,57.0,52.0,83,29.82,10.0,SSE,9.2,-,N/A,,Partly Cloudy,160,2012-11-10 06:53:00
1:53 AM,57.0,52.0,83,29.81,10.0,SE,10.4,-,N/A,,Clear,140,2012-11-10 07:53:00
2:53 AM,57.9,53.1,84,29.79,10.0,SSE,13.8,-,N/A,,Clear,160,2012-11-10 08:53:00
3:53 AM,57.2,53.6,88,29.78,10.0,SSE,12.7,-,N/A,,Clear,160,2012-11-10 09:53:00
4:53 AM,57.9,53.1,84,29.77,10.0,SSE,13.8,-,N/A,,Clear,160,2012-11-10 10:53:00
5:53 AM,57.2,53.6,88,29.76,10.0,South,15.0,-,N/A,,Clear,170,2012-11-10 11:53:00
6:53 AM,57.9,53.1,84,29.75,10.0,South,18.4,-,0.00,,Partly Cloudy,170,2012-11-10 12:53:00
7:53 AM,59.0,53.1,81,29.76,10.0,South,16.1,-,N/A,,Clear,180,2012-11-10 13:53:00
8:53 AM,64.0,54.0,70,29.76,10.0,South,21.9,27.6,N/A,,Clear,190,2012-11-10 14:53:00
9:53 AM,68.0,55.0,63,29.75,10.0,South,19.6,26.5,0.00,Rain,Rain,190,2012-11-10 15:53:00
10:53 AM,72.0,55.0,55,29.74,10.0,South,21.9,31.1,N/A,Rain,Light Rain,190,2012-11-10 16:53:00
11:53 AM,75.0,55.9,51,29.72,10.0,South,25.3,32.2,N/A,,Clear,190,2012-11-10 17:53:00
12:53 PM,75.9,57.0,52,29.71,10.0,South,16.1,27.6,N/A,,Clear,190,2012-11-10 18:53:00
1:53 PM,72.0,55.9,57,29.73,10.0,South,21.9,29.9,N/A,,Clear,190,2012-11-10 19:53:00
2:53 PM,73.0,55.9,55,29.70,10.0,South,19.6,-,N/A,,Partly Cloudy,180,2012-11-10 20:53:00
3:53 PM,71.1,55.0,57,29.69,10.0,South,19.6,-,N/A,,Clear,170,2012-11-10 21:53:00
4:53 PM,70.0,54.0,57,29.69,10.0,South,20.7,-,N/A,,Clear,180,2012-11-10 22:53:00
5:53 PM,70.0,50.0,49,29.71,10.0,South,18.4,29.9,N/A,,Clear,180,2012-11-10 23:53:00
6:53 PM,68.0,48.0,49,29.69,10.0,South,24.2,31.1,N/A,,Clear,170,2012-11-11 00:53:00
7:53 PM,66.9,46.9,49,29.67,10.0,South,19.6,27.6,N/A,,Clear,170,2012-11-11 01:53:00
8:53 PM,66.2,46.4,49,29.67,10.0,South,19.6,-,N/A,,Clear,170,2012-11-11 02:53:00
9:53 PM,68.0,46.4,46,29.68,10.0,South,23.0,32.2,N/A,,Clear,180,2012-11-11 03:53:00
10:53 PM,64.9,48.0,54,29.68,10.0,South,23.0,32.2,N/A,,Clear,180,2012-11-11 04:53:00
11:53 PM,64.9,50.0,58,29.70,10.0,South,25.3,33.4,N/A,,Clear,180,2012-11-11 05:53:00